Regional Weather Roundup
Issued by NWS

Home | Current Version | Previous Version | Text Only | Print | Product List | Glossary Off
Versions: 1 2 3 4 5 6 7 8 9 10 11 12 13 14 15 16 17 18 19 20 21 22 23 24 25 26 27 28 29 30 31 32 33 34 35 36 37 38 39 40 41 42 43 44 45 46 47 48 49 50

000
ASUS44 KMEG 010110
RWRTN
TENNESSEE HOURLY STATE WEATHER ROUNDUP
NATIONAL WEATHER SERVICE MEMPHIS TN
700 PM CST SAT FEB 28 2015

TNZ002-004-019-021-049-052-054-088>092-010200-
WEST TENNESSEE

CITY           SKY/WX    TMP DP  RH WIND       PRES   REMARKS
MEMPHIS INTL   MOCLDY    43  22  43 N7        30.36R
NWS MEMPHIS      N/A     41 N/A N/A MISG        N/A
JACKSON        MOCLDY    43  20  39 N3        30.36F
DYERSBURG      CLOUDY    34  16  47 N6        30.44R WCI  29
UNION CITY     PTCLDY    30  25  80 N7        30.42R WCI  23
PARIS          CLEAR     36  19  51 NE8       30.36F WCI  29
LEXINGTON      CLOUDY    41  21  45 E5        30.37F
SAVANNAH       MOCLDY    46  27  46 CALM      30.39S
$$

TNZ008-025-027-028-033-062-065-066-010200-
NORTH MIDDLE TENNESSEE

CITY           SKY/WX    TMP DP  RH WIND       PRES   REMARKS
NASHVILLE      MOCLDY    44  25  47 NE5       30.42F
CLARKSVILLE    CLOUDY    36  25  64 E8        30.42F WCI  30
SMYRNA         MOCLDY    42  26  53 CALM      30.43F
COOKEVILLE     CLEAR     45  28  53 S8        30.42F
CROSSVILLE     CLOUDY    41  26  55 SE3       30.44S
$$

TNZ061-075-076-078-094-096-097-010200-
SOUTH MIDDLE TENNESSEE

CITY           SKY/WX    TMP DP  RH WIND       PRES   REMARKS
FAYETTEVILLE   CLOUDY    46  28  49 E3          N/A
TULLAHOMA      CLOUDY    46  27  46 SE6       30.44R
WINCHESTER     CLOUDY    45  28  53 SE3       30.45R
MCMINNVILLE    PTCLDY    45  27  49 CALM      30.44R
COLUMBIA         N/A     48  34  57 SE3       30.39S
SHELBYVILLE    CLOUDY    48  30  49 SE9       30.43S
$$

TNZ017-018-042-046-047-010200-
NORTHEAST TENNESSEE

CITY           SKY/WX    TMP DP  RH WIND       PRES   REMARKS
TRI CITIES     FAIR      37  25  61 NE3       30.50S
ELIZABETHTON   MOCLDY    37  21  52 E6        30.50S WCI  33
$$

TNZ012-013-036-069-073-074-010200-
CENTRAL EAST TENNESSEE

CITY           SKY/WX    TMP DP  RH WIND       PRES   REMARKS
KNOXVILLE      MOCLDY    43  27  53 NE3       30.48S
OAK RIDGE      MOCLDY    43  25  49 CALM      30.50R
GATLINBURG     MOCLDY    39  28  65 CALM      30.47F
MORRISTOWN     CLEAR     41  27  56 NE5       30.48S
$$

TNZ083-085-099-010200-
SOUTHEAST TENNESSEE

CITY           SKY/WX    TMP DP  RH WIND       PRES   REMARKS
CHATTANOOGA    MOCLDY    44  31  60 CALM      30.49R
$$

SKY/WX REPORTED AS FAIR MEANS FEW OR NO CLOUDS BELOW
12 THOUSAND FEET.



USA.gov is the U.S. government's official web portal to all federal, state and local government web resources and services.